Year,Month,Day,Hour,Minute,Value (Times are PST for temperature in C)
2018,11,19,00,00,-8.60
2018,11,19,00,01,-8.60
2018,11,19,00,02,-8.60
2018,11,19,00,03,-8.60
2018,11,19,00,04,-8.60
2018,11,19,00,05,-8.60
2018,11,19,00,06,-8.70
2018,11,19,00,07,-8.70
2018,11,19,00,08,-8.70
2018,11,19,00,09,-8.70
2018,11,19,00,10,-8.70
2018,11,19,00,11,-8.70
2018,11,19,00,12,-8.70
2018,11,19,00,13,-8.70
2018,11,19,00,14,-8.70
2018,11,19,00,15,-8.70
2018,11,19,00,16,-8.70
2018,11,19,00,17,-8.70
2018,11,19,00,18,-8.70
2018,11,19,00,19,-8.70
2018,11,19,00,20,-8.60
2018,11,19,00,21,-8.60
2018,11,19,00,22,-8.60
2018,11,19,00,23,-8.70
2018,11,19,00,24,-8.70
2018,11,19,00,25,-8.70
2018,11,19,00,26,-8.70
2018,11,19,00,27,-8.70
2018,11,19,00,28,-8.60
2018,11,19,00,29,-8.70
2018,11,19,00,30,-8.70
2018,11,19,00,31,-8.60
2018,11,19,00,32,-8.60
2018,11,19,00,33,-8.70
2018,11,19,00,34,-8.70
2018,11,19,00,35,-8.70
2018,11,19,00,36,-8.70
2018,11,19,00,37,-8.70
2018,11,19,00,38,-8.60
2018,11,19,00,39,-8.60
2018,11,19,00,40,-8.60
2018,11,19,00,41,-8.60
2018,11,19,00,42,-8.60
2018,11,19,00,43,-8.60
2018,11,19,00,44,-8.60
2018,11,19,00,45,-8.60
2018,11,19,00,46,-8.60
2018,11,19,00,47,-8.60
2018,11,19,00,48,-8.60
2018,11,19,00,49,-8.60
2018,11,19,00,50,-8.60
2018,11,19,00,51,-8.60
2018,11,19,00,52,-8.60
2018,11,19,00,53,-8.60
2018,11,19,00,54,-8.60
2018,11,19,00,55,-8.60
2018,11,19,00,56,-8.60
2018,11,19,00,57,-8.60
2018,11,19,00,58,-8.60
2018,11,19,00,59,-8.60
2018,11,19,01,00,-8.60
2018,11,19,01,01,-8.60
2018,11,19,01,02,-8.60
2018,11,19,01,03,-8.60
2018,11,19,01,04,-8.60
2018,11,19,01,05,-8.60
2018,11,19,01,06,-8.60
2018,11,19,01,07,-8.60
2018,11,19,01,08,-8.60
2018,11,19,01,09,-8.60
2018,11,19,01,10,-8.60
2018,11,19,01,11,-8.50
2018,11,19,01,12,-8.50
2018,11,19,01,13,-8.50
2018,11,19,01,14,-8.50
2018,11,19,01,15,-8.50
2018,11,19,01,16,-8.50
2018,11,19,01,17,-8.50
2018,11,19,01,18,-8.50
2018,11,19,01,19,-8.40
2018,11,19,01,20,-8.40
2018,11,19,01,21,-8.40
2018,11,19,01,22,-8.40
2018,11,19,01,23,-8.40
2018,11,19,01,24,-8.40
2018,11,19,01,25,-8.40
2018,11,19,01,26,-8.40
2018,11,19,01,27,-8.40
2018,11,19,01,28,-8.40
2018,11,19,01,29,-8.40
2018,11,19,01,30,-8.30
2018,11,19,01,31,-8.30
2018,11,19,01,32,-8.30
2018,11,19,01,33,-8.30
2018,11,19,01,34,-8.30
2018,11,19,01,35,-8.30
2018,11,19,01,36,-8.30
2018,11,19,01,37,-8.30
2018,11,19,01,38,-8.30
2018,11,19,01,39,-8.30
2018,11,19,01,40,-8.30
2018,11,19,01,41,-8.30
2018,11,19,01,42,-8.30
2018,11,19,01,43,-8.30
2018,11,19,01,44,-8.30
2018,11,19,01,45,-8.30
2018,11,19,01,46,-8.30
2018,11,19,01,47,-8.30
2018,11,19,01,48,-8.30
2018,11,19,01,49,-8.30
2018,11,19,01,50,-8.30
2018,11,19,01,51,-8.40
2018,11,19,01,52,-8.40
2018,11,19,01,53,-8.40
2018,11,19,01,54,-8.40
2018,11,19,01,55,-8.40
2018,11,19,01,56,-8.40
2018,11,19,01,57,-8.40
2018,11,19,01,58,-8.40
2018,11,19,01,59,-8.40
2018,11,19,02,00,-8.30
2018,11,19,02,01,-8.30
2018,11,19,02,02,-8.30
2018,11,19,02,03,-8.30
2018,11,19,02,04,-8.30
2018,11,19,02,05,-8.30
2018,11,19,02,06,-8.30
2018,11,19,02,07,-8.30
2018,11,19,02,08,-8.30
2018,11,19,02,09,-8.30
2018,11,19,02,10,-8.20
2018,11,19,02,11,-8.20
2018,11,19,02,12,-8.20
2018,11,19,02,13,-8.20
2018,11,19,02,14,-8.20
2018,11,19,02,15,-8.20
2018,11,19,02,16,-8.20
2018,11,19,02,17,-8.20
2018,11,19,02,18,-8.20
2018,11,19,02,19,-8.20
2018,11,19,02,20,-8.20
2018,11,19,02,21,-8.20
2018,11,19,02,22,-8.20
2018,11,19,02,23,-8.10
2018,11,19,02,24,-8.10
2018,11,19,02,25,-8.10
2018,11,19,02,26,-8.10
2018,11,19,02,27,-8.10
2018,11,19,02,28,-8.10
2018,11,19,02,29,-8.10
2018,11,19,02,30,-8.10
2018,11,19,02,31,-8.10
2018,11,19,02,32,-8.10
2018,11,19,02,33,-8.10
2018,11,19,02,34,-8.10
2018,11,19,02,35,-8.10
2018,11,19,02,36,-8.10
2018,11,19,02,37,-8.10
2018,11,19,02,38,-8.00
2018,11,19,02,39,-8.00
2018,11,19,02,40,-8.10
2018,11,19,02,41,-8.00
2018,11,19,02,42,-8.00
2018,11,19,02,43,-8.00
2018,11,19,02,44,-8.00
2018,11,19,02,45,-8.00
2018,11,19,02,46,-8.00
2018,11,19,02,47,-8.00
2018,11,19,02,48,-8.00
2018,11,19,02,49,-8.00
2018,11,19,02,50,-8.00
2018,11,19,02,51,-7.90
2018,11,19,02,52,-7.90
2018,11,19,02,53,-7.90
2018,11,19,02,54,-7.90
2018,11,19,02,55,-7.90
2018,11,19,02,56,-7.90
2018,11,19,02,57,-7.90
2018,11,19,02,58,-7.90
2018,11,19,02,59,-7.90
2018,11,19,03,00,-7.90
2018,11,19,03,01,-7.90
2018,11,19,03,02,-7.90
2018,11,19,03,03,-7.90
2018,11,19,03,04,-7.90
2018,11,19,03,05,-7.90
2018,11,19,03,06,-7.90
2018,11,19,03,07,-7.90
2018,11,19,03,08,-7.90
2018,11,19,03,09,-7.90
2018,11,19,03,10,-7.90
2018,11,19,03,11,-7.90
2018,11,19,03,12,-7.90
2018,11,19,03,13,-7.90
2018,11,19,03,14,-7.90
2018,11,19,03,15,-7.90
2018,11,19,03,16,-7.90
2018,11,19,03,17,-7.90
2018,11,19,03,18,-7.90
2018,11,19,03,19,-7.90
2018,11,19,03,20,-7.80
2018,11,19,03,21,-7.80
2018,11,19,03,22,-7.80
2018,11,19,03,23,-7.80
2018,11,19,03,24,-7.80
2018,11,19,03,25,-7.80
2018,11,19,03,26,-7.80
2018,11,19,03,27,-7.80
2018,11,19,03,28,-7.80
2018,11,19,03,29,-7.80
2018,11,19,03,30,-7.80
2018,11,19,03,31,-7.80
2018,11,19,03,32,-7.80
2018,11,19,03,33,-7.80
2018,11,19,03,34,-7.80
2018,11,19,03,35,-7.80
2018,11,19,03,36,-7.80
2018,11,19,03,37,-7.80
2018,11,19,03,38,-7.80
2018,11,19,03,39,-7.80
2018,11,19,03,40,-7.80
2018,11,19,03,41,-7.80
2018,11,19,03,42,-7.80
2018,11,19,03,43,-7.80
2018,11,19,03,44,-7.80
2018,11,19,03,45,-7.80
2018,11,19,03,46,-7.80
2018,11,19,03,47,-7.80
2018,11,19,03,48,-7.80
2018,11,19,03,49,-7.80
2018,11,19,03,50,-7.80
2018,11,19,03,51,-7.80
2018,11,19,03,52,-7.80
2018,11,19,03,53,-7.80
2018,11,19,03,54,-7.80
2018,11,19,03,55,-7.80
2018,11,19,03,56,-7.80
2018,11,19,03,57,-7.80
2018,11,19,03,58,-7.70
2018,11,19,03,59,-7.70
2018,11,19,04,00,-7.70
2018,11,19,04,01,-7.70
2018,11,19,04,02,-7.70
2018,11,19,04,03,-7.70
2018,11,19,04,04,-7.70
2018,11,19,04,05,-7.70
2018,11,19,04,06,-7.70
2018,11,19,04,07,-7.70
2018,11,19,04,08,-7.70
2018,11,19,04,09,-7.70
2018,11,19,04,10,-7.70
2018,11,19,04,11,-7.70
2018,11,19,04,12,-7.70
2018,11,19,04,13,-7.70
2018,11,19,04,14,-7.70
2018,11,19,04,15,-7.70
2018,11,19,04,16,-7.70
2018,11,19,04,17,-7.70
2018,11,19,04,18,-7.70
2018,11,19,04,19,-7.70
2018,11,19,04,20,-7.70
2018,11,19,04,21,-7.70
2018,11,19,04,22,-7.70
2018,11,19,04,23,-7.70
2018,11,19,04,24,-7.70
2018,11,19,04,25,-7.60
2018,11,19,04,26,-7.60
2018,11,19,04,27,-7.60
2018,11,19,04,28,-7.60
2018,11,19,04,29,-7.60
2018,11,19,04,30,-7.60
2018,11,19,04,31,-7.50
2018,11,19,04,32,-7.50
2018,11,19,04,33,-7.50
2018,11,19,04,34,-7.50
2018,11,19,04,35,-7.50
2018,11,19,04,36,-7.50
2018,11,19,04,37,-7.50
2018,11,19,04,38,-7.50
2018,11,19,04,39,-7.40
2018,11,19,04,40,-7.40
2018,11,19,04,41,-7.40
2018,11,19,04,42,-7.40
2018,11,19,04,43,-7.40
2018,11,19,04,44,-7.40
2018,11,19,04,45,-7.40
2018,11,19,04,46,-7.40
2018,11,19,04,47,-7.40
2018,11,19,04,48,-7.40
2018,11,19,04,49,-7.40
2018,11,19,04,50,-7.40
2018,11,19,04,51,-7.40
2018,11,19,04,52,-7.40
2018,11,19,04,53,-7.40
2018,11,19,04,54,-7.40
2018,11,19,04,55,-7.40
2018,11,19,04,56,-7.40
2018,11,19,04,57,-7.40
2018,11,19,04,58,-7.40
2018,11,19,04,59,-7.40
2018,11,19,05,00,-7.40
2018,11,19,05,01,-7.40
2018,11,19,05,02,-7.30
2018,11,19,05,03,-7.30
2018,11,19,05,04,-7.30
2018,11,19,05,05,-7.40
2018,11,19,05,06,-7.40
2018,11,19,05,07,-7.40
2018,11,19,05,08,-7.40
2018,11,19,05,09,-7.40
2018,11,19,05,10,-7.40
2018,11,19,05,11,-7.40
2018,11,19,05,12,-7.40
2018,11,19,05,13,-7.40
2018,11,19,05,14,-7.40
2018,11,19,05,15,-7.40
2018,11,19,05,16,-7.40
2018,11,19,05,17,-7.40
2018,11,19,05,18,-7.40
2018,11,19,05,19,-7.40
2018,11,19,05,20,-7.40
2018,11,19,05,21,-7.40
2018,11,19,05,22,-7.40
2018,11,19,05,23,-7.40
2018,11,19,05,24,-7.40
2018,11,19,05,25,-7.40
2018,11,19,05,26,-7.40
2018,11,19,05,27,-7.40
2018,11,19,05,28,-7.40
2018,11,19,05,29,-7.40
2018,11,19,05,30,-7.40
2018,11,19,05,31,-7.40
2018,11,19,05,32,-7.40
2018,11,19,05,33,-7.40
2018,11,19,05,34,-7.40
2018,11,19,05,35,-7.40
2018,11,19,05,36,-7.40
2018,11,19,05,37,-7.40
2018,11,19,05,38,-7.40
2018,11,19,05,39,-7.40
2018,11,19,05,40,-7.40
2018,11,19,05,41,-7.40
2018,11,19,05,42,-7.40
2018,11,19,05,43,-7.40
2018,11,19,05,44,-7.40
2018,11,19,05,45,-7.40
2018,11,19,05,46,-7.40
2018,11,19,05,47,-7.40
2018,11,19,05,48,-7.40
2018,11,19,05,49,-7.40
2018,11,19,05,50,-7.40
2018,11,19,05,51,-7.40
2018,11,19,05,52,-7.40
2018,11,19,05,53,-7.40
2018,11,19,05,54,-7.40
2018,11,19,05,55,-7.50
2018,11,19,05,56,-7.50
2018,11,19,05,57,-7.50
2018,11,19,05,58,-7.50
2018,11,19,05,59,-7.50
2018,11,19,06,00,-7.50
2018,11,19,06,01,-7.50
2018,11,19,06,02,-7.50
2018,11,19,06,03,-7.50
2018,11,19,06,04,-7.50
2018,11,19,06,05,-7.50
2018,11,19,06,06,-7.50
2018,11,19,06,07,-7.40
2018,11,19,06,08,-7.40
2018,11,19,06,09,-7.40
2018,11,19,06,10,-7.40
2018,11,19,06,11,-7.40
2018,11,19,06,12,-7.40
2018,11,19,06,13,-7.40
2018,11,19,06,14,-7.40
2018,11,19,06,15,-7.40
2018,11,19,06,16,-7.40
2018,11,19,06,17,-7.40
2018,11,19,06,18,-7.40
2018,11,19,06,19,-7.40
2018,11,19,06,20,-7.40
2018,11,19,06,21,-7.40
2018,11,19,06,22,-7.40
2018,11,19,06,23,-7.40
2018,11,19,06,24,-7.40
2018,11,19,06,25,-7.40
2018,11,19,06,26,-7.40
2018,11,19,06,27,-7.40
2018,11,19,06,28,-7.40
2018,11,19,06,29,-7.40
2018,11,19,06,30,-7.40
2018,11,19,06,31,-7.40
2018,11,19,06,32,-7.40
2018,11,19,06,33,-7.40
2018,11,19,06,34,-7.40
2018,11,19,06,35,-7.30
2018,11,19,06,36,-7.30
2018,11,19,06,37,-7.30
2018,11,19,06,38,-7.30
2018,11,19,06,39,-7.30
2018,11,19,06,40,-7.30
2018,11,19,06,41,-7.30
2018,11,19,06,42,-7.30
2018,11,19,06,43,-7.20
2018,11,19,06,44,-7.20
2018,11,19,06,45,-7.20
2018,11,19,06,46,-7.20
2018,11,19,06,47,-7.20
2018,11,19,06,48,-7.20
2018,11,19,06,49,-7.20
2018,11,19,06,50,-7.20
2018,11,19,06,51,-7.20
2018,11,19,06,52,-7.20
2018,11,19,06,53,-7.20
2018,11,19,06,54,-7.20
2018,11,19,06,55,-7.20
2018,11,19,06,56,-7.20
2018,11,19,06,57,-7.20
2018,11,19,06,58,-7.20
2018,11,19,06,59,-7.10
2018,11,19,07,00,-7.20
2018,11,19,07,01,-7.20
2018,11,19,07,02,-7.20
2018,11,19,07,03,-7.20
2018,11,19,07,04,-7.20
2018,11,19,07,05,-7.20
2018,11,19,07,06,-7.20
2018,11,19,07,07,-7.10
2018,11,19,07,08,-7.10
2018,11,19,07,09,-7.10
2018,11,19,07,10,-7.10
2018,11,19,07,11,-7.10
2018,11,19,07,12,-7.10
2018,11,19,07,13,-7.10
2018,11,19,07,14,-7.10
2018,11,19,07,15,-7.00
2018,11,19,07,16,-7.00
2018,11,19,07,17,-7.00
2018,11,19,07,18,-7.00
2018,11,19,07,19,-6.90
2018,11,19,07,20,-6.90
2018,11,19,07,21,-6.90
2018,11,19,07,22,-6.90
2018,11,19,07,23,-6.90
2018,11,19,07,24,-6.90
2018,11,19,07,25,-6.90
2018,11,19,07,26,-6.90
2018,11,19,07,27,-6.90
2018,11,19,07,28,-6.90
2018,11,19,07,29,-6.90
2018,11,19,07,30,-6.90
2018,11,19,07,31,-7.00
2018,11,19,07,32,-6.90
2018,11,19,07,33,-6.90
2018,11,19,07,34,-7.00
2018,11,19,07,35,-7.00
2018,11,19,07,36,-7.00
2018,11,19,07,37,-7.00
2018,11,19,07,38,-7.00
2018,11,19,07,39,-7.00
2018,11,19,07,40,-7.10
2018,11,19,07,41,-7.10
2018,11,19,07,42,-7.10
2018,11,19,07,43,-7.10
2018,11,19,07,44,-7.10
2018,11,19,07,45,-7.10
2018,11,19,07,46,-7.10
2018,11,19,07,47,-7.20
2018,11,19,07,48,-7.20
2018,11,19,07,49,-7.20
2018,11,19,07,50,-7.20
2018,11,19,07,51,-7.20
2018,11,19,07,52,-7.20
2018,11,19,07,53,-7.20
2018,11,19,07,54,-7.20
2018,11,19,07,55,-7.20
2018,11,19,07,56,-7.20
2018,11,19,07,57,-7.20
2018,11,19,07,58,-7.20
2018,11,19,07,59,-7.20
2018,11,19,08,00,-7.20
2018,11,19,08,01,-7.20
2018,11,19,08,02,-7.20
2018,11,19,08,03,-7.20
2018,11,19,08,04,-7.20
2018,11,19,08,05,-7.20
2018,11,19,08,06,-7.10
2018,11,19,08,07,-7.10
2018,11,19,08,08,-7.10
2018,11,19,08,09,-7.10
2018,11,19,08,10,-7.10
2018,11,19,08,11,-7.00
2018,11,19,08,12,-7.00
2018,11,19,08,13,-7.00
2018,11,19,08,14,-7.00
2018,11,19,08,15,-7.00
2018,11,19,08,16,-7.00
2018,11,19,08,17,-7.00
2018,11,19,08,18,-7.00
2018,11,19,08,19,-7.00
2018,11,19,08,20,-7.00
2018,11,19,08,21,-7.00
2018,11,19,08,22,-7.00
2018,11,19,08,23,-7.00
2018,11,19,08,24,-7.00
2018,11,19,08,25,-7.00
2018,11,19,08,26,-7.00
2018,11,19,08,27,-7.00
2018,11,19,08,28,-7.00
2018,11,19,08,29,-7.00
2018,11,19,08,30,-7.00
2018,11,19,08,31,-7.00
2018,11,19,08,32,-7.00
2018,11,19,08,33,-6.90
2018,11,19,08,34,-6.90
2018,11,19,08,35,-6.90
2018,11,19,08,36,-6.90
2018,11,19,08,37,-6.90
2018,11,19,08,38,-6.90
2018,11,19,08,39,-6.90
2018,11,19,08,40,-6.80
2018,11,19,08,41,-6.80
2018,11,19,08,42,-6.80
2018,11,19,08,43,-6.80
2018,11,19,08,44,-6.80
2018,11,19,08,45,-6.80
2018,11,19,08,46,-6.80
2018,11,19,08,47,-6.80
2018,11,19,08,48,-6.80
2018,11,19,08,49,-6.80
2018,11,19,08,50,-6.80
2018,11,19,08,51,-6.80
2018,11,19,08,52,-6.80
2018,11,19,08,53,-6.80
2018,11,19,08,54,-6.80
2018,11,19,08,55,-6.80
2018,11,19,08,56,-6.80
2018,11,19,08,57,-6.80
2018,11,19,08,58,-6.80
2018,11,19,08,59,-6.80
2018,11,19,09,00,-6.80
2018,11,19,09,01,-6.80
2018,11,19,09,02,-6.80
2018,11,19,09,03,-6.80
2018,11,19,09,04,-6.80
2018,11,19,09,05,-6.80
2018,11,19,09,06,-6.80
2018,11,19,09,07,-6.70
2018,11,19,09,08,-6.70
2018,11,19,09,09,-6.70
2018,11,19,09,10,-6.70
2018,11,19,09,11,-6.70
2018,11,19,09,12,-6.70
2018,11,19,09,13,-6.70
2018,11,19,09,14,-6.80
2018,11,19,09,15,-6.80
2018,11,19,09,16,-6.80
2018,11,19,09,17,-6.80
2018,11,19,09,18,-6.80
2018,11,19,09,19,-6.80
2018,11,19,09,20,-6.80
2018,11,19,09,21,-6.80
2018,11,19,09,22,-6.80
2018,11,19,09,23,-6.80
2018,11,19,09,24,-6.80
2018,11,19,09,25,-6.80
2018,11,19,09,26,-6.80
2018,11,19,09,27,-6.80
2018,11,19,09,28,-6.80
2018,11,19,09,29,-6.80
2018,11,19,09,30,-6.80
2018,11,19,09,31,-6.80
2018,11,19,09,32,-6.80
2018,11,19,09,33,-6.80
2018,11,19,09,34,-6.80
2018,11,19,09,35,-6.80
2018,11,19,09,36,-6.80
2018,11,19,09,37,-6.80
2018,11,19,09,38,-6.80
2018,11,19,09,39,-6.80
2018,11,19,09,40,-6.80
2018,11,19,09,41,-6.80
2018,11,19,09,42,-6.80
2018,11,19,09,43,-6.80
2018,11,19,09,44,-6.80
2018,11,19,09,45,-6.80
2018,11,19,09,46,-6.80
2018,11,19,09,47,-6.80
2018,11,19,09,48,-6.80
2018,11,19,09,49,-6.80
2018,11,19,09,50,-6.80
2018,11,19,09,51,-6.80
2018,11,19,09,52,-6.70
2018,11,19,09,53,-6.70
2018,11,19,09,54,-6.70
2018,11,19,09,55,-6.70
2018,11,19,09,56,-6.70
2018,11,19,09,57,-6.70
2018,11,19,09,58,-6.70
2018,11,19,09,59,-6.70
2018,11,19,10,00,-6.70
2018,11,19,10,01,-6.70
2018,11,19,10,02,-6.70
2018,11,19,10,03,-6.70
2018,11,19,10,04,-6.70
2018,11,19,10,05,-6.70
2018,11,19,10,06,-6.70
2018,11,19,10,07,-6.70
2018,11,19,10,08,-6.70
2018,11,19,10,09,-6.60
2018,11,19,10,10,-6.60
2018,11,19,10,11,-6.60
2018,11,19,10,12,-6.60
2018,11,19,10,13,-6.60
2018,11,19,10,14,-6.50
2018,11,19,10,15,-6.50
2018,11,19,10,16,-6.50
2018,11,19,10,17,-6.40
2018,11,19,10,18,-6.40
2018,11,19,10,19,-6.40
2018,11,19,10,20,-6.40
2018,11,19,10,21,-6.40
2018,11,19,10,22,-6.30
2018,11,19,10,23,-6.30
2018,11,19,10,24,-6.30
2018,11,19,10,25,-6.30
2018,11,19,10,26,-6.30
2018,11,19,10,27,-6.30
2018,11,19,10,28,-6.30
2018,11,19,10,29,-6.20
2018,11,19,10,30,-6.20
2018,11,19,10,31,-6.20
2018,11,19,10,32,-6.20
2018,11,19,10,33,-6.20
2018,11,19,10,34,-6.20
2018,11,19,10,35,-6.20
2018,11,19,10,36,-6.20
2018,11,19,10,37,-6.20
2018,11,19,10,38,-6.10
2018,11,19,10,39,-6.10
2018,11,19,10,40,-6.10
2018,11,19,10,41,-6.10
2018,11,19,10,42,-6.10
2018,11,19,10,43,-6.10
2018,11,19,10,44,-6.00
2018,11,19,10,45,-6.00
2018,11,19,10,46,-6.00
2018,11,19,10,47,-6.00
2018,11,19,10,48,-6.00
2018,11,19,10,49,-6.00
2018,11,19,10,50,-6.10
2018,11,19,10,51,-6.10
2018,11,19,10,52,-6.10
2018,11,19,10,53,-6.10
2018,11,19,10,54,-6.10
2018,11,19,10,55,-6.10
2018,11,19,10,56,-6.10
2018,11,19,10,57,-6.10
2018,11,19,10,58,-6.10
2018,11,19,10,59,-6.10
2018,11,19,11,00,-6.10
2018,11,19,11,01,-6.10
2018,11,19,11,02,-6.10
2018,11,19,11,03,-6.10
2018,11,19,11,04,-6.10
2018,11,19,11,05,-6.10
2018,11,19,11,06,-6.10
2018,11,19,11,07,-6.10
2018,11,19,11,08,-6.10
2018,11,19,11,09,-6.10
2018,11,19,11,10,-6.10
2018,11,19,11,11,-6.10
2018,11,19,11,12,-6.10
2018,11,19,11,13,-6.10
2018,11,19,11,14,-6.10
2018,11,19,11,15,-6.10
2018,11,19,11,16,-6.10
2018,11,19,11,17,-6.10
2018,11,19,11,18,-6.10
2018,11,19,11,19,-6.10
2018,11,19,11,20,-6.10
2018,11,19,11,21,-6.10
2018,11,19,11,22,-6.00
2018,11,19,11,23,-6.00
2018,11,19,11,24,-6.00
2018,11,19,11,25,-6.00
2018,11,19,11,26,-6.00
2018,11,19,11,27,-6.00
2018,11,19,11,28,-5.90
2018,11,19,11,29,-5.90
2018,11,19,11,30,-5.90
2018,11,19,11,31,-5.90
2018,11,19,11,32,-5.90
2018,11,19,11,33,-5.80
2018,11,19,11,34,-5.80
2018,11,19,11,35,-5.80
2018,11,19,11,36,-5.80
2018,11,19,11,37,-5.80
2018,11,19,11,38,-5.80
2018,11,19,11,39,-5.80
2018,11,19,11,40,-5.80
2018,11,19,11,41,-5.80
2018,11,19,11,42,-5.70
2018,11,19,11,43,-5.70
2018,11,19,11,44,-5.70
2018,11,19,11,45,-5.70
2018,11,19,11,46,-5.70
2018,11,19,11,47,-5.70
2018,11,19,11,48,-5.70
2018,11,19,11,49,-5.70
2018,11,19,11,50,-5.70
2018,11,19,11,51,-5.70
2018,11,19,11,52,-5.60
2018,11,19,11,53,-5.60
2018,11,19,11,54,-5.60
2018,11,19,11,55,-5.60
2018,11,19,11,56,-5.60
2018,11,19,11,57,-5.60
2018,11,19,11,58,-5.60
2018,11,19,11,59,-5.60
2018,11,19,12,00,-5.60
2018,11,19,12,01,-5.60
2018,11,19,12,02,-5.60
2018,11,19,12,03,-5.60
2018,11,19,12,04,-5.60
2018,11,19,12,05,-5.60
2018,11,19,12,06,-5.60
2018,11,19,12,07,-5.60
2018,11,19,12,08,-5.60
2018,11,19,12,09,-5.60
2018,11,19,12,10,-5.60
2018,11,19,12,11,-5.60
2018,11,19,12,12,-5.60
2018,11,19,12,13,-5.60
2018,11,19,12,14,-5.60
2018,11,19,12,15,-5.60
2018,11,19,12,16,-5.60
2018,11,19,12,17,-5.60
2018,11,19,12,18,-5.60
2018,11,19,12,19,-5.60
2018,11,19,12,20,-5.60
2018,11,19,12,21,-5.60
2018,11,19,12,22,-5.60
2018,11,19,12,23,-5.60
2018,11,19,12,24,-5.60
2018,11,19,12,25,-5.60
2018,11,19,12,26,-5.60
2018,11,19,12,27,-5.50
2018,11,19,12,28,-5.50
2018,11,19,12,29,-5.50
2018,11,19,12,30,-5.50
2018,11,19,12,31,-5.50
2018,11,19,12,32,-5.50
2018,11,19,12,33,-5.40
2018,11,19,12,34,-5.40
2018,11,19,12,35,-5.40
2018,11,19,12,36,-5.40
2018,11,19,12,37,-5.40
2018,11,19,12,38,-5.40
2018,11,19,12,39,-5.40
2018,11,19,12,40,-5.40
2018,11,19,12,41,-5.40
2018,11,19,12,42,-5.30
2018,11,19,12,43,-5.30
2018,11,19,12,44,-5.30
2018,11,19,12,45,-5.30
2018,11,19,12,46,-5.30
2018,11,19,12,47,-5.30
2018,11,19,12,48,-5.30
2018,11,19,12,49,-5.30
2018,11,19,12,50,-5.30
2018,11,19,12,51,-5.30
2018,11,19,12,52,-5.30
2018,11,19,12,53,-5.30
2018,11,19,12,54,-5.30
2018,11,19,12,55,-5.30
2018,11,19,12,56,-5.30
2018,11,19,12,57,-5.30
2018,11,19,12,58,-5.30
2018,11,19,12,59,-5.30
2018,11,19,13,00,-5.30
2018,11,19,13,01,-5.30
2018,11,19,13,02,-5.30
2018,11,19,13,03,-5.30
2018,11,19,13,04,-5.30
2018,11,19,13,05,-5.30
2018,11,19,13,06,-5.30
2018,11,19,13,07,-5.30
2018,11,19,13,08,-5.30
2018,11,19,13,09,-5.30
2018,11,19,13,10,-5.30
2018,11,19,13,11,-5.30
2018,11,19,13,12,-5.30
2018,11,19,13,13,-5.30
2018,11,19,13,14,-5.30
2018,11,19,13,15,-5.30
2018,11,19,13,16,-5.30
2018,11,19,13,17,-5.30
2018,11,19,13,18,-5.30
2018,11,19,13,19,-5.30
2018,11,19,13,20,-5.30
2018,11,19,13,21,-5.30
2018,11,19,13,22,-5.30
2018,11,19,13,23,-5.30
2018,11,19,13,24,-5.30
2018,11,19,13,25,-5.30
2018,11,19,13,26,-5.30
2018,11,19,13,27,-5.30
2018,11,19,13,28,-5.30
2018,11,19,13,29,-5.30
2018,11,19,13,30,-5.30
2018,11,19,13,31,-5.30
2018,11,19,13,32,-5.30
2018,11,19,13,33,-5.30
2018,11,19,13,34,-5.30
2018,11,19,13,35,-5.30
2018,11,19,13,36,-5.30
2018,11,19,13,37,-5.30
2018,11,19,13,38,-5.30
2018,11,19,13,39,-5.20
2018,11,19,13,40,-5.20
2018,11,19,13,41,-5.20
2018,11,19,13,42,-5.20
2018,11,19,13,43,-5.20
2018,11,19,13,44,-5.20
2018,11,19,13,45,-5.20
2018,11,19,13,46,-5.20
2018,11,19,13,47,-5.20
2018,11,19,13,48,-5.20
2018,11,19,13,49,-5.20
2018,11,19,13,50,-5.20
2018,11,19,13,51,-5.20
2018,11,19,13,52,-5.20
2018,11,19,13,53,-5.20
2018,11,19,13,54,-5.20
2018,11,19,13,55,-5.20
2018,11,19,13,56,-5.20
2018,11,19,13,57,-5.20
2018,11,19,13,58,-5.10
2018,11,19,13,59,-5.10
2018,11,19,14,00,-5.10
2018,11,19,14,01,-5.00
2018,11,19,14,02,-5.00
2018,11,19,14,03,-5.00
2018,11,19,14,04,-4.90
2018,11,19,14,05,-4.90
2018,11,19,14,06,-4.90
2018,11,19,14,07,-4.90
2018,11,19,14,08,-4.90
2018,11,19,14,09,-4.90
2018,11,19,14,10,-4.90
2018,11,19,14,11,-5.00
2018,11,19,14,12,-5.00
2018,11,19,14,13,-5.00
2018,11,19,14,14,-5.10
2018,11,19,14,15,-5.10
2018,11,19,14,16,-5.10
2018,11,19,14,17,-5.10
2018,11,19,14,18,-5.10
2018,11,19,14,19,-5.10
2018,11,19,14,20,-5.10
2018,11,19,14,21,-5.10
2018,11,19,14,22,-5.10
2018,11,19,14,23,-5.00
2018,11,19,14,24,-5.00
2018,11,19,14,25,-5.00
2018,11,19,14,26,-5.00
2018,11,19,14,27,-5.00
2018,11,19,14,28,-4.90
2018,11,19,14,29,-4.90
2018,11,19,14,30,-4.90
2018,11,19,14,31,-4.90
2018,11,19,14,32,-4.90
2018,11,19,14,33,-4.90
2018,11,19,14,34,-4.90
2018,11,19,14,35,-4.90
2018,11,19,14,36,-4.90
2018,11,19,14,37,-4.80
2018,11,19,14,38,-4.80
2018,11,19,14,39,-4.80
2018,11,19,14,40,-4.80
2018,11,19,14,41,-4.80
2018,11,19,14,42,-4.80
2018,11,19,14,43,-4.80
2018,11,19,14,44,-4.80
2018,11,19,14,45,-4.80
2018,11,19,14,46,-4.80
2018,11,19,14,47,-4.80
2018,11,19,14,48,-4.80
2018,11,19,14,49,-4.80
2018,11,19,14,50,-4.80
2018,11,19,14,51,-4.90
2018,11,19,14,52,-4.90
2018,11,19,14,53,-4.90
2018,11,19,14,54,-4.90
2018,11,19,14,55,-4.90
2018,11,19,14,56,-4.90
2018,11,19,14,57,-4.90
2018,11,19,14,58,-4.90
2018,11,19,14,59,-4.90
2018,11,19,15,00,-4.90
2018,11,19,15,01,-4.90
2018,11,19,15,02,-4.90
2018,11,19,15,03,-4.90
2018,11,19,15,04,-4.90
2018,11,19,15,05,-4.90
2018,11,19,15,06,-4.90
2018,11,19,15,07,-4.90
2018,11,19,15,08,-4.90
2018,11,19,15,09,-4.90
2018,11,19,15,10,-4.90
2018,11,19,15,11,-4.80
2018,11,19,15,12,-4.80
2018,11,19,15,13,-4.80
2018,11,19,15,14,-4.80
2018,11,19,15,15,-4.80
2018,11,19,15,16,-4.80
2018,11,19,15,17,-4.80
2018,11,19,15,18,-4.80
2018,11,19,15,19,-4.80
2018,11,19,15,20,-4.80
2018,11,19,15,21,-4.80
2018,11,19,15,22,-4.90
2018,11,19,15,23,-4.90
2018,11,19,15,24,-4.90
2018,11,19,15,25,-4.90
2018,11,19,15,26,-4.90
2018,11,19,15,27,-4.90
2018,11,19,15,28,-4.90
2018,11,19,15,29,-4.90
2018,11,19,15,30,-4.90
2018,11,19,15,31,-4.90
2018,11,19,15,32,-4.90
2018,11,19,15,33,-4.90
2018,11,19,15,34,-4.90
2018,11,19,15,35,-4.90
2018,11,19,15,36,-4.90
2018,11,19,15,37,-4.90
2018,11,19,15,38,-4.90
2018,11,19,15,39,-4.90
2018,11,19,15,40,-4.90
2018,11,19,15,41,-4.90
2018,11,19,15,42,-4.90
2018,11,19,15,43,-4.90
2018,11,19,15,44,-4.90
2018,11,19,15,45,-4.90
2018,11,19,15,46,-4.90
2018,11,19,15,47,-4.90
2018,11,19,15,48,-4.90
2018,11,19,15,49,-4.90
2018,11,19,15,50,-4.90
2018,11,19,15,51,-4.90
2018,11,19,15,52,-5.00
2018,11,19,15,53,-5.00
2018,11,19,15,54,-5.00
2018,11,19,15,55,-5.00
2018,11,19,15,56,-5.00
2018,11,19,15,57,-5.00
2018,11,19,15,58,-5.00
2018,11,19,15,59,-5.00
2018,11,19,16,00,-5.10
2018,11,19,16,01,-5.10
2018,11,19,16,02,-5.10
2018,11,19,16,03,-5.10
2018,11,19,16,04,-5.10
2018,11,19,16,05,-5.10
2018,11,19,16,06,-5.10
2018,11,19,16,07,-5.10
2018,11,19,16,08,-5.10
2018,11,19,16,09,-5.10
2018,11,19,16,10,-5.10
2018,11,19,16,11,-5.20
2018,11,19,16,12,-5.20
2018,11,19,16,13,-5.20
2018,11,19,16,14,-5.20
2018,11,19,16,15,-5.20
2018,11,19,16,16,-5.20
2018,11,19,16,17,-5.20
2018,11,19,16,18,-5.20
2018,11,19,16,19,-5.20
2018,11,19,16,20,-5.10
2018,11,19,16,21,-5.10
2018,11,19,16,22,-5.10
2018,11,19,16,23,-5.10
2018,11,19,16,24,-5.10
2018,11,19,16,25,-5.10
2018,11,19,16,26,-5.10
2018,11,19,16,27,-5.10
2018,11,19,16,28,-5.10
2018,11,19,16,29,-5.10
2018,11,19,16,30,-5.10
2018,11,19,16,31,-5.10
2018,11,19,16,32,-5.10
2018,11,19,16,33,-5.10
2018,11,19,16,34,-5.10
2018,11,19,16,35,-5.10
2018,11,19,16,36,-5.10
2018,11,19,16,37,-5.00
2018,11,19,16,38,-5.00
2018,11,19,16,39,-5.00
2018,11,19,16,40,-5.00
2018,11,19,16,41,-4.90
2018,11,19,16,42,-4.90
2018,11,19,16,43,-4.90
2018,11,19,16,44,-4.90
2018,11,19,16,45,-4.90
2018,11,19,16,46,-4.90
2018,11,19,16,47,-4.90
2018,11,19,16,48,-4.90
2018,11,19,16,49,-4.90
2018,11,19,16,50,-4.90
2018,11,19,16,51,-4.90
2018,11,19,16,52,-4.90
2018,11,19,16,53,-4.80
2018,11,19,16,54,-4.80
2018,11,19,16,55,-4.80
2018,11,19,16,56,-4.80
2018,11,19,16,57,-4.80
2018,11,19,16,58,-4.80
2018,11,19,16,59,-4.80
2018,11,19,17,00,-4.80
2018,11,19,17,01,-4.80
2018,11,19,17,02,-4.80
2018,11,19,17,03,-4.80
2018,11,19,17,04,-4.80
2018,11,19,17,05,-4.80
2018,11,19,17,06,-4.80
2018,11,19,17,07,-4.80
2018,11,19,17,08,-4.80
2018,11,19,17,09,-4.80
2018,11,19,17,10,-4.80
2018,11,19,17,11,-4.80
2018,11,19,17,12,-4.80
2018,11,19,17,13,-4.80
2018,11,19,17,14,-4.80
2018,11,19,17,15,-4.80
2018,11,19,17,16,-4.80
2018,11,19,17,17,-4.80
2018,11,19,17,18,-4.80
2018,11,19,17,19,-4.70